| time (UTC) | temp C | wind direction | speed KPH | gust KPH | rain 1hr cm | rain 24hr cm | rain mn cm | humidity % | barometer mb |
| 20260903001516 | 27 | 0.0 | 0.0 | 0.00 | 0.00 | 0.00 | 71 | 1020.0 | |
| 20260903000516 | 27 | 0.0 | 0.0 | 0.00 | 0.00 | 0.00 | 71 | 1019.9 | |
| 20260902235516 | 27 | 0.0 | 0.0 | 0.00 | 0.00 | 0.00 | 70 | 1020.0 | |
| 20260902234516 | 28 | 0.0 | 0.0 | 0.00 | 0.00 | 0.00 | 68 | 1020.0 | |
| 20260902233516 | 28 | 0.0 | 0.0 | 0.00 | 0.00 | 0.00 | 67 | 1020.0 | |
| 20260902232517 | 28 | 0.0 | 0.0 | 0.00 | 0.00 | 0.00 | 65 | 1020.1 | |
| 20260902231516 | 29 | 0.0 | 0.0 | 0.00 | 0.00 | 0.00 | 64 | 1020.0 | |
| 20260902230516 | 30 | 0.0 | 0.0 | 0.00 | 0.00 | 0.00 | 62 | 1020.2 | |
| 20260902225516 | 30 | 0.0 | 1.6 | 0.00 | 0.00 | 0.00 | 60 | 1020.3 | |
| 20260902224516 | 31 | 0.0 | 3.2 | 0.00 | 0.00 | 0.00 | 58 | 1020.3 | |
| 20260902223516 | 31 | 0.0 | 1.6 | 0.00 | 0.00 | 0.00 | 57 | 1020.5 | |
| 20260902222516 | 31 | 0.0 | 3.2 | 0.00 | 0.00 | 0.00 | 53 | 1020.6 | |
| 20260902221516 | 31 | 23 | 1.6 | 4.8 | 0.00 | 0.00 | 0.00 | 51 | 1020.7 |
| 20260902220537 | 32 | 23 | 1.6 | 4.8 | 0.00 | 0.00 | 0.00 | 52 | 1020.7 |
| 20260902215516 | 32 | 23 | 3.2 | 6.4 | 0.00 | 0.00 | 0.00 | 48 | 1020.8 |
| 20260902214516 | 32 | 0.0 | 3.2 | 0.00 | 0.00 | 0.00 | 49 | 1020.8 | |
| 20260902213516 | 32 | 23 | 1.6 | 6.4 | 0.00 | 0.00 | 0.00 | 46 | 1020.7 |
| 20260902212516 | 33 | 0.0 | 1.6 | 0.00 | 0.00 | 0.00 | 51 | 1020.9 | |
| 20260902211516 | 33 | 0.0 | 1.6 | 0.00 | 0.00 | 0.00 | 48 | 1021.0 | |
| 20260902210516 | 33 | 23 | 1.6 | 3.2 | 0.00 | 0.00 | 0.00 | 44 | 1021.0 |
| 20260902205516 | 34 | 0.0 | 3.2 | 0.00 | 0.00 | 0.00 | 42 | 1021.2 | |
| 20260902204516 | 35 | 45 | 1.6 | 3.2 | 0.00 | 0.00 | 0.00 | 40 | 1021.1 |
| 20260902203536 | 35 | 0.0 | 1.6 | 0.00 | 0.00 | 0.00 | 38 | 1021.2 | |
| 20260902202516 | 35 | 23 | 1.6 | 6.4 | 0.00 | 0.00 | 0.00 | 40 | 1021.1 |
| 20260902201516 | 35 | 0 | 1.6 | 6.4 | 0.00 | 0.00 | 0.00 | 39 | 1021.5 |
| 20260902200516 | 35 | 0.0 | 3.2 | 0.00 | 0.00 | 0.00 | 41 | 1021.4 | |
| 20260902195516 | 35 | 23 | 1.6 | 3.2 | 0.00 | 0.00 | 0.00 | 38 | 1021.6 |
| 20260902194516 | 35 | 0.0 | 3.2 | 0.00 | 0.00 | 0.00 | 42 | 1021.8 | |
| 20260902193516 | 34 | 23 | 1.6 | 4.8 | 0.00 | 0.00 | 0.00 | 41 | 1021.7 |
| 20260902192516 | 34 | 23 | 1.6 | 4.8 | 0.00 | 0.00 | 0.00 | 40 | 1021.9 |
| 20260902191516 | 35 | 0.0 | 1.6 | 0.00 | 0.00 | 0.00 | 42 | 1022.0 | |
| 20260902190516 | 34 | 23 | 3.2 | 6.4 | 0.00 | 0.00 | 0.00 | 39 | 1022.1 |
| 20260902185516 | 34 | 0.0 | 1.6 | 0.00 | 0.00 | 0.00 | 44 | 1022.4 | |
| 20260902184516 | 34 | 0 | 3.2 | 6.4 | 0.00 | 0.00 | 0.00 | 43 | 1022.4 |
| 20260902183516 | 33 | 0.0 | 1.6 | 0.00 | 0.00 | 0.00 | 50 | 1022.6 | |
| 20260902182516 | 33 | 23 | 1.6 | 3.2 | 0.00 | 0.00 | 0.00 | 45 | 1022.6 |
| 20260902181516 | 33 | 23 | 1.6 | 3.2 | 0.00 | 0.00 | 0.00 | 44 | 1022.7 |
| 20260902180536 | 33 | 23 | 1.6 | 4.8 | 0.00 | 0.00 | 0.00 | 45 | 1022.7 |
| 20260902175516 | 32 | 23 | 1.6 | 3.2 | 0.00 | 0.00 | 0.00 | 48 | 1022.8 |
| 20260902174536 | 32 | 23 | 1.6 | 3.2 | 0.00 | 0.00 | 0.00 | 46 | 1022.9 |
| 20260902173516 | 32 | 23 | 1.6 | 4.8 | 0.00 | 0.00 | 0.00 | 47 | 1023.0 |
| 20260902172516 | 32 | 23 | 1.6 | 4.8 | 0.00 | 0.00 | 0.00 | 48 | 1023.2 |
| 20260902171516 | 32 | 23 | 1.6 | 4.8 | 0.00 | 0.00 | 0.00 | 50 | 1023.3 |
| 20260902170516 | 31 | 0.0 | 3.2 | 0.00 | 0.00 | 0.00 | 54 | 1023.4 | |
| 20260902165516 | 31 | 23 | 1.6 | 4.8 | 0.00 | 0.00 | 0.00 | 54 | 1023.4 |
| 20260902164516 | 31 | 0.0 | 1.6 | 0.00 | 0.00 | 0.00 | 61 | 1023.6 | |
| 20260902163516 | 30 | 0.0 | 3.2 | 0.00 | 0.00 | 0.00 | 63 | 1023.7 | |
| 20260902162516 | 30 | 0.0 | 1.6 | 0.00 | 0.00 | 0.00 | 65 | 1023.9 | |
| 20260902161516 | 29 | 23 | 1.6 | 3.2 | 0.00 | 0.00 | 0.00 | 66 | 1023.9 |
| 20260902160516 | 28 | 0.0 | 0.0 | 0.00 | 0.00 | 0.00 | 72 | 1024.0 | |
| 20260902155516 | 28 | 0.0 | 0.0 | 0.00 | 0.00 | 0.00 | 75 | 1024.2 | |
| 20260902154515 | 27 | 0.0 | 1.6 | 0.00 | 0.00 | 0.00 | 73 | 1024.0 | |
| 20260902153516 | 27 | 0.0 | 0.0 | 0.00 | 0.00 | 0.00 | 79 | 1024.1 | |
| 20260902152515 | 27 | 0.0 | 0.0 | 0.00 | 0.00 | 0.00 | 75 | 1024.0 | |
| 20260902151516 | 26 | 0.0 | 0.0 | 0.00 | 0.00 | 0.00 | 76 | 1023.8 | |
| 20260902150516 | 26 | 0.0 | 0.0 | 0.00 | 0.00 | 0.00 | 78 | 1023.7 | |
| 20260902145515 | 25 | 0.0 | 0.0 | 0.00 | 0.00 | 0.00 | 79 | 1023.6 | |
| 20260902144516 | 25 | 0.0 | 0.0 | 0.00 | 0.00 | 0.00 | 83 | 1023.6 | |
| 20260902143515 | 24 | 0.0 | 0.0 | 0.00 | 0.00 | 0.00 | 83 | 1023.6 | |
| 20260902142516 | 23 | 0.0 | 0.0 | 0.00 | 0.00 | 0.00 | 85 | 1023.5 | |
| 20260902141516 | 23 | 0.0 | 0.0 | 0.00 | 0.00 | 0.00 | 87 | 1023.5 | |
| 20260902140515 | 22 | 0.0 | 0.0 | 0.00 | 0.00 | 0.00 | 88 | 1023.5 | |
| 20260902135535 | 22 | 0.0 | 0.0 | 0.00 | 0.00 | 0.00 | 89 | 1023.5 | |
| 20260902134516 | 22 | 0.0 | 0.0 | 0.00 | 0.00 | 0.00 | 89 | 1023.4 | |
| 20260902133515 | 21 | 0.0 | 0.0 | 0.00 | 0.00 | 0.00 | 90 | 1023.4 | |
| 20260902132516 | 21 | 0.0 | 0.0 | 0.00 | 0.00 | 0.00 | 90 | 1023.6 | |
| 20260902131516 | 21 | 0.0 | 0.0 | 0.00 | 0.00 | 0.00 | 89 | 1023.8 | |
| 20260902130536 | 20 | 0.0 | 0.0 | 0.00 | 0.00 | 0.00 | 89 | 1023.6 | |
| 20260902125516 | 20 | 0.0 | 0.0 | 0.00 | 0.00 | 0.00 | 88 | 1023.4 | |
| 20260902124516 | 20 | 0.0 | 0.0 | 0.00 | 0.00 | 0.00 | 86 | 1023.5 | |
| 20260902123535 | 20 | 0.0 | 0.0 | 0.00 | 0.00 | 0.00 | 85 | 1023.5 | |
| 20260902122515 | 19 | 0.0 | 0.0 | 0.00 | 0.00 | 0.00 | 84 | 1023.6 | |
| 20260902121515 | 19 | 0.0 | 0.0 | 0.00 | 0.00 | 0.00 | 84 | 1023.5 | |
| 20260902120616 | 19 | 0.0 | 0.0 | 0.00 | 0.00 | 0.00 | 84 | 1023.4 | |
| 20260902115515 | 18 | 0.0 | 0.0 | 0.00 | 0.00 | 0.00 | 85 | 1023.4 | |
| 20260902114535 | 18 | 0.0 | 0.0 | 0.00 | 0.00 | 0.00 | 87 | 1023.3 | |
| 20260902113535 | 18 | 0.0 | 0.0 | 0.00 | 0.00 | 0.00 | 88 | 1023.3 | |
| 20260902112516 | 18 | 0.0 | 0.0 | 0.00 | 0.00 | 0.00 | 88 | 1023.3 | |
| 20260902111556 | 18 | 0.0 | 0.0 | 0.00 | 0.00 | 0.00 | 88 | 1023.1 | |
| 20260902110515 | 18 | 0.0 | 0.0 | 0.00 | 0.00 | 0.00 | 88 | 1023.2 | |
| 20260902105515 | 18 | 0.0 | 0.0 | 0.00 | 0.00 | 0.00 | 89 | 1023.3 | |
| 20260902104535 | 18 | 0.0 | 0.0 | 0.00 | 0.00 | 0.00 | 89 | 1023.4 | |
| 20260902103515 | 19 | 0.0 | 0.0 | 0.00 | 0.00 | 0.00 | 89 | 1023.2 | |
| 20260902102517 | 19 | 0.0 | 0.0 | 0.00 | 0.00 | 0.00 | 89 | 1023.2 | |
| 20260902101515 | 19 | 0.0 | 0.0 | 0.00 | 0.00 | 0.00 | 89 | 1023.3 | |
| 20260902100517 | 19 | 0.0 | 0.0 | 0.00 | 0.00 | 0.00 | 89 | 1023.2 | |
| 20260902095517 | 19 | 0.0 | 0.0 | 0.00 | 0.00 | 0.00 | 89 | 1023.0 | |
| 20260902094517 | 20 | 0.0 | 0.0 | 0.00 | 0.00 | 0.00 | 90 | 1023.0 | |
| 20260902093517 | 20 | 0.0 | 0.0 | 0.00 | 0.00 | 0.00 | 90 | 1023.0 | |
| 20260902092517 | 20 | 0.0 | 0.0 | 0.00 | 0.00 | 0.00 | 90 | 1022.8 | |
| 20260902091517 | 20 | 0.0 | 0.0 | 0.00 | 0.00 | 0.00 | 90 | 1022.9 | |
| 20260902090537 | 20 | 0.0 | 0.0 | 0.00 | 0.00 | 0.00 | 90 | 1022.8 | |
| 20260902085517 | 20 | 0.0 | 0.0 | 0.00 | 0.00 | 0.00 | 90 | 1022.8 | |
| 20260902084517 | 20 | 0.0 | 0.0 | 0.00 | 0.00 | 0.00 | 89 | 1022.8 | |
| 20260902083517 | 20 | 0.0 | 0.0 | 0.00 | 0.00 | 0.00 | 90 | 1022.8 | |
| 20260902082537 | 20 | 0.0 | 0.0 | 0.00 | 0.00 | 0.00 | 90 | 1022.9 | |
| 20260902081517 | 20 | 0.0 | 0.0 | 0.00 | 0.00 | 0.00 | 90 | 1022.8 | |
| 20260902080517 | 20 | 0.0 | 0.0 | 0.00 | 0.00 | 0.00 | 90 | 1022.8 | |
| 20260902075517 | 20 | 0.0 | 0.0 | 0.00 | 0.00 | 0.00 | 90 | 1022.8 | |
| 20260902074517 | 20 | 0.0 | 0.0 | 0.00 | 0.00 | 0.00 | 90 | 1022.8 | |
| 20260902073539 | 20 | 0.0 | 0.0 | 0.00 | 0.00 | 0.00 | 90 | 1023.0 | |
| 20260902072517 | 20 | 0.0 | 0.0 | 0.00 | 0.00 | 0.00 | 90 | 1022.9 | |
| 20260902071517 | 20 | 0.0 | 0.0 | 0.00 | 0.00 | 0.00 | 90 | 1023.0 | |
| 20260902070517 | 20 | 0.0 | 0.0 | 0.00 | 0.00 | 0.00 | 90 | 1023.0 | |
| 20260902065517 | 20 | 0.0 | 0.0 | 0.00 | 0.00 | 0.00 | 90 | 1023.0 | |
| 20260902064517 | 20 | 0.0 | 0.0 | 0.00 | 0.00 | 0.00 | 89 | 1022.9 | |
| 20260902063517 | 21 | 0.0 | 0.0 | 0.00 | 0.00 | 0.00 | 89 | 1022.9 | |
| 20260902062517 | 21 | 0.0 | 0.0 | 0.00 | 0.00 | 0.00 | 89 | 1023.0 | |
| 20260902061517 | 21 | 0.0 | 0.0 | 0.00 | 0.00 | 0.00 | 89 | 1023.0 | |
| 20260902060517 | 21 | 0.0 | 0.0 | 0.00 | 0.00 | 0.00 | 89 | 1023.2 | |
| 20260902055637 | 21 | 0.0 | 0.0 | 0.00 | 0.00 | 0.00 | 89 | 1023.2 | |
| 20260902054517 | 21 | 0.0 | 0.0 | 0.00 | 0.00 | 0.00 | 89 | 1023.3 | |
| 20260902053517 | 21 | 0.0 | 0.0 | 0.00 | 0.00 | 0.00 | 89 | 1023.2 | |
| 20260902052516 | 21 | 0.0 | 0.0 | 0.00 | 0.00 | 0.00 | 89 | 1023.1 | |
| 20260902051516 | 21 | 0.0 | 0.0 | 0.00 | 0.00 | 0.00 | 89 | 1023.0 | |
| 20260902050517 | 21 | 0.0 | 0.0 | 0.00 | 0.00 | 0.00 | 89 | 1023.0 | |
| 20260902045517 | 21 | 0.0 | 0.0 | 0.00 | 0.00 | 0.00 | 88 | 1023.0 | |
| 20260902044517 | 21 | 0.0 | 0.0 | 0.00 | 0.00 | 0.00 | 88 | 1022.7 | |
| 20260902043537 | 22 | 0.0 | 0.0 | 0.00 | 0.00 | 0.00 | 87 | 1022.8 | |
| 20260902042517 | 22 | 0.0 | 0.0 | 0.00 | 0.00 | 0.00 | 87 | 1022.8 | |
| 20260902041516 | 22 | 0.0 | 0.0 | 0.00 | 0.00 | 0.00 | 87 | 1022.6 | |
| 20260902040537 | 22 | 0.0 | 0.0 | 0.00 | 0.00 | 0.00 | 87 | 1022.4 | |
| 20260902035516 | 22 | 0.0 | 0.0 | 0.00 | 0.00 | 0.00 | 87 | 1022.4 | |
| 20260902034517 | 22 | 0.0 | 0.0 | 0.00 | 0.00 | 0.00 | 87 | 1022.1 | |
| 20260902033517 | 22 | 0.0 | 0.0 | 0.00 | 0.00 | 0.00 | 86 | 1022.1 | |
| 20260902032517 | 22 | 0.0 | 0.0 | 0.00 | 0.00 | 0.00 | 86 | 1022.1 | |
| 20260902031517 | 22 | 0.0 | 0.0 | 0.00 | 0.00 | 0.00 | 86 | 1022.0 | |
| 20260902030517 | 22 | 0.0 | 0.0 | 0.00 | 0.00 | 0.00 | 86 | 1022.0 | |
| 20260902025516 | 22 | 0.0 | 0.0 | 0.00 | 0.00 | 0.00 | 85 | 1022.1 | |
| 20260902024537 | 23 | 0.0 | 0.0 | 0.00 | 0.00 | 0.00 | 85 | 1022.0 | |
| 20260902023517 | 23 | 0.0 | 1.6 | 0.00 | 0.00 | 0.00 | 85 | 1022.0 | |
| 20260902022517 | 23 | 0.0 | 0.0 | 0.00 | 0.00 | 0.00 | 84 | 1022.0 | |
| 20260902021516 | 23 | 0.0 | 0.0 | 0.00 | 0.00 | 0.00 | 84 | 1021.5 | |
| 20260902020516 | 23 | 0.0 | 0.0 | 0.00 | 0.00 | 0.00 | 83 | 1021.6 | |
| 20260902015517 | 23 | 0.0 | 0.0 | 0.00 | 0.00 | 0.00 | 83 | 1021.7 | |
| 20260902014516 | 24 | 0.0 | 0.0 | 0.00 | 0.00 | 0.00 | 82 | 1021.4 | |
| 20260902013517 | 24 | 0.0 | 0.0 | 0.00 | 0.00 | 0.00 | 81 | 1021.5 | |
| 20260902012517 | 24 | 0.0 | 0.0 | 0.00 | 0.00 | 0.00 | 80 | 1021.4 | |
| 20260902011517 | 25 | 0.0 | 0.0 | 0.00 | 0.00 | 0.00 | 79 | 1021.2 | |
| 20260902010516 | 25 | 0.0 | 1.6 | 0.00 | 0.00 | 0.00 | 78 | 1021.1 | |
| 20260902005516 | 25 | 0.0 | 0.0 | 0.00 | 0.00 | 0.00 | 77 | 1021.1 | |
| 20260902004516 | 25 | 0.0 | 0.0 | 0.00 | 0.00 | 0.00 | 76 | 1020.9 | |
| 20260902003517 | 25 | 0.0 | 0.0 | 0.00 | 0.00 | 0.00 | 75 | 1020.9 | |
| 20260902002516 | 26 | 0.0 | 0.0 | 0.00 | 0.00 | 0.00 | 76 | 1020.9 | |
| 20260902001536 | 26 | 0.0 | 0.0 | 0.00 | 0.00 | 0.00 | 76 | 1021.0 |